User: anonymous   Login
Location: Unspecified
(0.0000°N, 0.0000°E)
Time: 12:03:59
(UTC+00:00)
Language:

NOSS 3-2 (A) - Orbit

View from above orbital plane
View from above orbital plane
View from above satellite
View from above satellite

Ground track
Ground track

The orbit data is extracted from the following two-line orbital elements,

1 28095U 03054A   18308.22138489 0.00000000  00000-0  00000-0 0    06
2 28095  63.4186 102.3916 0347000 358.0936   1.9064 13.41367056    00
Epoch (UTC): 04 November 2018 05:18:47
Eccentricity: 0.0347000
inclination: 63.4186°
perigee height: 844 km
apogee height: 1364 km
right ascension of ascending node: 102.3916°
argument of perigee: 358.0936°
revolutions per day: 13.41367056
mean anomaly at epoch: 1.9064°
orbit number at epoch: 0

The dashed part of the orbit path shows where the satellite is in the earth's shadow,  

DLR